Location: Herksen
(52.4316°N, 6.1319°E)
Time: 20:13:42
(UTC+00:00)

Cosmos 1825 Rocket - Pass Details

Date: 15 May 2026
Orbit: 598 x 622 km, 82.5° (Epoch: 6 June)

Event Time Altitude Azimuth Distance (km) Brightness Sun altitude
Rises 20:26:55 0° 355° (N) 2,873 7.9 -8.1°
Reaches altitude 10° 20:29:18 10° 4° (N) 1,968 6.8 -8.3°
Maximum altitude 20:33:17 34° 70° (ENE) 1,015 4.5 -8.7°
Enters shadow 20:36:54 12° 134° (SE) 1,837 5.3 -9.1°
